Location: Bi der Steinmur
(47.1828°N, 9.5426°E)
Time: 10:49:10
(UTC+00:00)

Daily predictions for brighter satellites

Satellite Brightness Start Highest point End
(mag) Time Altitude Azimuth Time Altitude Azimuth Time Altitude Azimuth
SL-16 R/B 4.4 19:54:48 10° WSW 19:59:52 32° NW 20:04:58 10° NNE
SL-24 R/B 4.2 19:55:46 10° SSE 19:59:56 65° ENE 20:04:26 10° N
Cosmos 1378 Rocket 4.2 19:55:47 10° SSW 20:00:10 61° WNW 20:04:32 10° N
Tiangong 2.4 19:57:42 10° SW 20:00:16 23° SSE 20:02:51 10° ESE
SL-14 R/B 3.4 19:57:35 10° SSW 20:01:25 79° W 20:05:22 10° N
Cosmos 1300 2.7 20:03:19 10° N 20:07:08 86° W 20:10:55 10° S
Cosmos 1271 Rocket 4.4 20:05:27 10° NNE 20:08:33 21° ENE 20:11:37 10° ESE
Cosmos 1709 Rocket 4.2 20:03:07 10° N 20:09:12 58° ENE 20:15:21 10° SSE
Ariane Rocket 3.1 20:06:35 10° SSE 20:11:42 80° WSW 20:16:50 10° NNW
Terra 2.9 20:07:41 10° SE 20:11:49 31° ENE 20:15:59 10° N
Meteor 2-5 Rocket 4.1 20:07:21 10° SSE 20:12:33 45° E 20:17:49 10° NNE
FALCON 9 DEB 2.9 20:09:56 10° SW 20:13:10 68° SSE 20:16:26 10° ENE
ARIANE 5 R/B 4.2 20:09:41 10° ESE 20:13:13 23° ENE 20:16:45 10° NNE
ERBS 4.2 20:15:02 10° W 20:17:08 17° SW 20:19:14 10° S
Cosmos 1943 3.7 20:16:37 10° SW 20:22:15 67° WNW 20:27:55 10° NNE
Okean 1 Rocket 4.3 20:21:30 10° NNW 20:25:43 42° W 20:29:55 10° SSW
USA 267 3.5 20:20:14 10° ENE 20:26:28 45° SE 20:32:39 10° SSW
Cosmos 1603 4.1 20:21:39 10° SW 20:27:19 69° WNW 20:33:04 10° NNE
Cosmos 1953 4.0 20:25:52 10° NNW 20:29:21 31° W 20:32:50 10° SSW
Cosmos 1455 Rocket 3.0 20:25:36 10° N 20:29:59 79° E 20:34:18 10° SSE
CZ-4B R/B 2.7 20:30:49 10° N 20:33:30 35° WNW 20:36:09 10° SW
USA 245 3.8 20:28:33 10° SSE 20:33:42 82° WSW 20:37:50 10° NNW
S3M 4.4 20:30:41 10° SSW 20:36:52 68° W 20:43:01 10° N
Cosmos 1025 Rocket 3.0 20:33:35 10° S 20:37:49 70° E 20:42:06 10° NNE
Cosmos 1371 Rocket 4.0 20:36:59 10° S 20:42:07 64° ESE 20:47:21 10° NNE
Spot 2 Rocket 3.5 20:37:59 11° SSE 20:42:48 83° ENE 20:47:56 10° NNW
Cosmos 1607 4.0 20:42:40 10° SSW 20:48:46 58° ESE 20:54:50 10° NE
Helios 1A Rocket 2.9 20:45:44 14° SSE 20:49:16 88° WSW 20:53:22 10° NNW
Cosmos 1455 2.3 20:49:41 10° N 20:53:27 63° ENE 20:56:09 18° SSE
Cosmos 1980 Rocket 4.5 20:51:50 10° N 20:55:13 16° NE 20:58:34 10° ENE
ATLAS 2AS CENTAUR R/B 2.9 20:48:20 10° NW 20:55:32 72° NE 21:01:13 15° SE
Cosmos 1536 Rocket 4.2 20:53:22 17° SSE 20:56:12 37° E 21:00:12 10° NNE
SPOT 3 Rocket 4.3 20:52:10 10° S 20:57:11 50° W 21:02:16 10° NNW
Cosmos 2369 Rocket 4.5 20:54:41 10° WNW 20:58:04 17° W 21:01:29 10° SW
Cosmos 1697 Rocket 4.3 20:55:12 10° N 20:59:51 25° NE 21:04:28 10° ESE
USA 234 3.6 20:54:43 10° ESE 21:01:12 66° NNE 21:07:42 10° NW
Lacrosse 4 Rocket 4.2 20:58:16 10° W 21:01:31 22° NW 21:04:46 10° N
Meteor 1-24 Rocket 3.7 20:57:10 10° SSW 21:02:28 83° WNW 21:07:52 10° N
Cosmos 1975 Rocket 3.8 20:58:13 10° SSW 21:02:35 55° WNW 21:06:58 10° N
Cosmos 1624 Rocket 4.0 20:58:17 10° SSW 21:03:33 88° ESE 21:08:48 10° NNE
SPOT 5 3.0 21:00:59 13° S 21:04:54 61° WSW 21:09:15 10° NNW
Cosmos 1190 Rocket 4.4 21:01:53 10° NNW 21:07:07 59° WSW 21:11:23 15° S
Cosmos 2184 Rocket 4.1 21:05:18 10° N 21:11:26 62° ENE 21:15:55 19° SSE
X-37B 2.4 21:10:50 10° SW 21:11:33 15° SSW 21:11:33 15° SSW
Cosmos 2228 3.8 21:10:01 10° N 21:14:00 38° ENE 21:16:17 21° SE
CZ-2C R/B 3.7 21:10:06 10° NNE 21:14:46 85° WNW 21:19:12 11° SSW
Resurs 01 Rocket 4.3 21:14:31 10° WSW 21:16:40 13° W 21:18:49 10° WNW
RESURS DK-1 3.9 21:14:13 10° N 21:17:47 27° NE 21:20:38 14° ESE
Cosmos 1544 Rocket 3.9 21:17:01 10° NNW 21:21:17 59° W 21:24:27 17° S
Lacrosse 5 rocket 1.2 21:18:11 10° NW 21:22:03 71° SW 21:24:15 26° SE
ATLAS 5 CENTAUR R/B 4.0 21:12:29 10° NW 21:23:01 36° WSW 21:26:13 15° SSW
Cosmos 1656 3.8 21:17:38 10° NNW 21:23:04 63° ENE 21:26:45 21° SE
Cosmos 2056 Rocket 4.0 21:18:12 10° SSW 21:23:32 66° WNW 21:28:57 10° NNE
Cosmos 1741 Rocket 4.5 21:23:02 10° NNW 21:28:15 53° ENE 21:31:37 21° SE
ERS-1 Rocket 3.8 21:24:22 14° S 21:28:29 46° W 21:33:20 10° NNW
Cosmos 1833 Rocket 3.6 21:27:38 22° SE 21:30:05 31° ESE 21:34:57 10° NE
Lacrosse 5 1.8 21:27:49 10° NW 21:32:58 89° NE 21:36:18 22° SE
Cosmos 676 Rocket 4.4 21:28:38 10° NNW 21:33:51 57° WSW 21:37:18 21° S
Cosmos 1420 Rocket 4.4 21:29:32 10° SSW 21:34:44 64° WNW 21:40:00 10° NNE
Tiangong 2.3 21:33:53 10° WSW 21:36:05 26° SSW 21:36:05 26° SSW
Cosmos 2084 3.2 21:33:54 10° SW 21:37:45 79° NW 21:41:38 10° NE
NOSS 2-1 (E) 4.1 21:34:23 10° NW 21:39:00 83° SW 21:43:00 23° SE
SL-8 R/B 3.9 21:34:44 10° W 21:39:34 76° N 21:44:24 10° E
Cosmos 1271 Rocket 4.0 21:40:54 10° NNW 21:44:33 34° W 21:47:01 17° SSW
Cosmos 2082 Rocket 3.8 21:45:07 17° ESE 21:46:31 18° E 21:50:16 10° ENE
ARIANE 5 R/B 3.5 21:46:38 20° SSW 21:49:25 43° W 21:53:42 10° NNW
Terra 3.0 21:46:06 15° SSW 21:49:30 35° W 21:53:53 10° NNW
Cosmos 2058 Rocket 4.2 21:52:30 10° N 21:56:30 33° ENE 21:58:21 23° ESE
USA 276 2.4 21:58:53 42° E 21:58:53 42° E 22:01:01 10° ENE
Cosmos 2344 4.4 21:50:19 10° NW 21:59:01 70° NE 22:10:08 13° SE
Cosmos 1850 Rocket 3.9 21:55:08 10° NNW 22:00:23 83° WSW 22:03:00 30° SSE
SAR-Lupe-4 3.8 21:58:28 10° N 22:02:02 67° WNW 22:03:44 28° SSW
Cosmos 2074 Rocket 4.5 21:57:17 10° NNW 22:03:24 55° W 22:07:42 20° SSW
Cosmos 1892 Rocket 4.0 22:02:20 32° SE 22:03:52 46° E 22:08:04 10° NNE
GP-B 3.2 22:00:58 10° N 22:05:22 60° E 22:07:04 35° SSE
USA 267 3.6 22:03:11 10° NE 22:09:42 69° NNW 22:16:11 10° WSW
Cosmos 1408 3.2 22:13:04 35° ESE 22:13:25 36° E 22:16:37 10° NNE
Spot 4 3.9 22:11:56 32° SSE 22:14:05 69° ENE 22:18:51 10° N
COSMOS 2406 3.7 22:13:19 30° SSE 22:15:33 42° ESE 22:20:57 10° NE
ADEOS Rocket 3.8 22:15:50 23° SE 22:20:19 58° ENE 22:27:43 10° N
Cosmos 962 Rocket 4.5 22:15:33 10° N 22:21:47 84° E 22:25:08 30° SSE
ASTEX 1 3.5 22:16:52 10° N 22:21:53 74° W 22:24:31 28° SSW
Cosmos 1331 Rocket 3.9 22:19:07 28° SSW 22:22:01 81° ESE 22:27:21 10° NNE
Nadezhda 1 Rocket 4.2 22:18:57 20° SSW 22:23:16 65° WNW 22:29:19 10° N
Cosmos 2154 Rocket 4.5 22:18:05 10° NNW 22:24:07 54° W 22:27:53 23° SSW
Cosmos 2369 4.2 22:18:51 10° NNW 22:24:30 56° ENE 22:27:54 24° SE
Meteor 1-11 4.3 22:22:19 31° SSE 22:24:55 62° E 22:30:26 10° NNE
Cosmos 1452 Rocket 4.0 22:21:04 15° SW 22:25:24 58° WNW 22:30:37 10° NNE
Cosmos 1825 3.5 22:26:15 25° ESE 22:26:42 26° E 22:29:51 10° NNE
SL-16 R/B 4.4 22:24:16 10° N 22:28:25 20° NE 22:32:32 10° E
Cosmos 1328 4.1 22:28:57 34° SSW 22:30:32 63° WNW 22:34:32 10° N
H-2A R/B 3.7 22:28:02 10° NNE 22:32:11 55° E 22:33:14 42° SSE
Cosmos 1980 Rocket 2.4 22:34:43 10° NNW 22:40:25 65° ENE 22:43:31 27° SE
Cosmos 1110 Rocket 4.3 22:37:53 22° SW 22:41:17 66° WNW 22:46:35 10° NNE
Cosmos 1606 Rocket 4.5 22:38:28 10° NNW 22:42:29 38° W 22:44:04 28° SW
Cosmos 1697 Rocket 2.8 22:38:43 10° NNW 22:44:18 66° WSW 22:46:39 35° S
USA 234 3.6 22:41:26 30° S 22:44:23 48° SW 22:50:43 10° WNW
ERS-2 2.9 22:41:26 10° NNE 22:44:46 35° E 22:44:58 34° ESE
ATLAS 2AS CENTAUR R/B 3.9 22:40:05 10° NW 22:45:49 28° WSW 22:48:38 21° SSW
Cosmos 1302 Rocket 4.0 22:43:52 37° S 22:45:52 65° ESE 22:51:02 10° NNE
Cosmos 1892 2.5 22:48:56 56° S 22:49:40 90° ESE 22:53:27 10° N
Celestis-02/Orion 38 4.5 22:48:31 35° SSE 22:50:47 86° WSW 22:55:55 10° NNW
SJ 16-02 3.8 22:51:00 10° NNE 22:53:45 16° NE 22:56:31 10° E
In-Cosmos 22 Rocket 4.2 22:52:54 35° S 22:55:20 74° E 23:00:51 10° NNE
RESURS DK-1 3.2 22:52:04 10° NW 22:55:50 34° WSW 22:56:28 32° SW
Lacrosse 5 rocket 3.7 22:59:12 10° WSW 22:59:45 11° WSW 22:59:45 11° WSW
SL-8 Rocket 4.1 22:54:58 10° NNW 23:01:13 71° W 23:04:12 32° S
Cosmos 2218 Rocket 4.1 23:00:35 10° NNW 23:07:00 76° W 23:10:07 33° S
Cosmos 1758 Rocket 4.4 23:07:07 32° ESE 23:08:09 37° E 23:12:10 10° NNE
ALOS 2 2.9 23:07:30 40° SSW 23:08:42 55° W 23:13:02 10° NNW
Cosmos 2322 Rocket 4.0 23:05:14 10° N 23:10:00 27° NE 23:14:47 10° ESE
Cosmos 2341 Rocket 4.5 23:04:17 10° NNW 23:10:25 51° W 23:13:32 28° SSW
Cosmos 2278 3.9 23:04:44 10° NNW 23:10:27 67° ENE 23:13:40 27° SE
Cosmos 1833 Rocket 3.5 23:09:16 14° SW 23:13:48 47° NW 23:19:14 10° NNE
Cosmos 2366 rocket 4.1 23:08:51 10° NNW 23:15:07 67° W 23:18:08 32° SSW
Lacrosse 5 3.4 23:11:44 10° WNW 23:15:21 20° WSW 23:15:28 20° SW
Cosmos 2084 Rocket 3.1 23:14:34 10° NW 23:18:30 88° NE 23:19:33 48° SE
Cosmos 1812 Rocket 3.7 23:14:53 10° N 23:19:22 67° E 23:20:47 41° SE
SL-8 R/B 3.6 23:17:20 10° WNW 23:22:08 67° SSW 23:24:35 28° SE
Cosmos 968 Rocket 3.9 23:21:32 10° NNW 23:26:31 49° WSW 23:28:09 36° SSW
Cosmos 2082 Rocket 2.3 23:26:56 29° SW 23:29:55 77° WNW 23:35:40 10° NNE
ATLAS 5 CENTAUR R/B 2.3 23:30:58 29° ESE 23:30:58 29° ESE 23:34:20 10° ENE
Cosmos 1633 2.3 23:31:19 69° SSE 23:31:38 76° E 23:35:07 10° NNE
Resurs 1-4 Rocket 4.4 23:30:29 10° ENE 23:32:53 13° E 23:35:16 10° ESE
Cosmos 1602 Rocket 3.4 23:32:14 49° S 23:33:23 90° SSW 23:37:44 10° N
USA 276 2.9 23:30:38 10° W 23:33:29 47° N 23:36:19 10° ENE
BREEZE-M DEB (TANK) 4.2 23:31:28 10° WNW 23:35:15 85° NNE 23:52:15 10° ESE
Cosmos 1869 4.0 23:38:17 10° NNW 23:41:52 37° W 23:42:27 35° WSW
Cosmos 1486 Rocket 3.9 23:39:40 10° NNW 23:44:54 75° WSW 23:46:54 38° S
Cosmos 2360 Rocket 3.7 23:46:39 10° NNW 23:51:49 34° NE 23:56:58 10° ESE
Cosmos 1238 4.0 23:55:46 83° W 23:55:48 83° W 23:58:50 10° N
